Starlink 11185

operational
NORAD ID: 62588 Int'l Des: 2025-008 Owner: SPXS Country: US Constellation: starlink
LEOCIRCULAR

Über Starlink 11185

Beschreibung wird geladen...

Live-Position

3D-Globus wird geladen...

Nächste Überflüge

Höhenverlauf

Altitude vs Time

uPlot chart will show altitude changes over time

Zweizeiliger Elementsatz

1 62588U 25008B 25352.79112893 .00198444 00000-0 15059-2 0 9993
2 62588 43.0008 253.5583 0002001 246.3619 113.7038 15.70957683 53395
Epoch: 18. Dez. 2025 • Age: 10 hours

Aktueller Status

Höhe 358.0 km
Geschwindigkeit 7.70 km/s
Subsatellitenpunkt 35.31°N, 135.86°W
Startdatum 13. Jan. 2025
Alter 0.9 years
Typ internet

Technische Details

Klassifizierung Payload
Masse 960.00 kg
Trockenmasse 910.00 kg
Gesamtmasse 960.00 kg
Länge 0.30 m
Durchmesser 4.10 m
Spannweite 29.00 m
Form Box + pan
Hersteller SPXS
Bus-Typ Starlink V2MD
Phasenstatus In Orbit
Besitzer/Staat SPXS/US

Große Konstellationen

Loading constellations...